Time,TemperatureF,DewpointF,PressureIn,WindDirection,WindDirectionDegrees,WindSpeedMPH,WindSpeedGustMPH,Humidity,HourlyPrecipIn,Conditions,Clouds,dailyrainin,SoftwareType,DateUTC
2013-08-11 00:01:00,79.8,70.9,30.03,NE,45,0.0,0.0,75,0.00,,,0.00,WSDL version 420,2013-08-11 04:01:00,
2013-08-11 00:05:00,79.7,71.1,30.03,NE,45,0.0,0.0,75,0.00,,,0.00,WSDL version 420,2013-08-11 04:05:00,
2013-08-11 00:10:00,79.6,71.2,30.03,NE,45,0.0,0.0,76,0.00,,,0.00,WSDL version 420,2013-08-11 04:10:00,
2013-08-11 00:15:00,79.4,71.2,30.03,NE,45,0.0,0.0,76,0.00,,,0.00,WSDL version 420,2013-08-11 04:15:00,
2013-08-11 00:20:00,79.3,71.1,30.03,NE,45,0.0,0.0,76,0.00,,,0.00,WSDL version 420,2013-08-11 04:20:00,
2013-08-11 00:25:00,79.2,70.9,30.03,NE,45,0.0,0.0,76,0.00,,,0.00,WSDL version 420,2013-08-11 04:25:00,
2013-08-11 00:30:00,79.0,71.0,30.03,NE,45,0.0,0.0,77,0.00,,,0.00,WSDL version 420,2013-08-11 04:30:00,
2013-08-11 00:35:00,78.9,71.1,30.03,NE,45,0.0,0.0,77,0.00,,,0.00,WSDL version 420,2013-08-11 04:35:00,
2013-08-11 00:40:00,78.8,71.1,30.03,NE,45,0.0,0.0,78,0.00,,,0.00,WSDL version 420,2013-08-11 04:40:00,
2013-08-11 00:45:00,78.8,71.4,30.03,NE,45,0.0,0.0,78,0.00,,,0.00,WSDL version 420,2013-08-11 04:45:00,
2013-08-11 00:50:00,78.6,71.4,30.03,NE,45,0.0,0.0,79,0.00,,,0.00,WSDL version 420,2013-08-11 04:50:00,
2013-08-11 00:55:00,78.4,71.4,30.03,NE,45,0.0,0.0,79,0.00,,,0.00,WSDL version 420,2013-08-11 04:55:00,
2013-08-11 01:01:00,78.4,71.4,30.03,NE,45,0.0,0.0,79,0.00,,,0.00,WSDL version 420,2013-08-11 05:01:00,
2013-08-11 01:06:00,78.3,71.2,30.03,NE,45,0.0,0.0,79,0.00,,,0.00,WSDL version 420,2013-08-11 05:06:00,
2013-08-11 01:11:00,78.3,71.4,30.03,NE,45,0.0,0.0,80,0.00,,,0.00,WSDL version 420,2013-08-11 05:11:00,
2013-08-11 01:16:00,78.2,71.5,30.03,NE,45,0.0,0.0,80,0.00,,,0.00,WSDL version 420,2013-08-11 05:16:00,
2013-08-11 01:21:00,78.1,71.4,30.03,NE,45,0.0,0.0,80,0.00,,,0.00,WSDL version 420,2013-08-11 05:21:00,
2013-08-11 01:26:00,78.1,71.4,30.03,NE,45,0.0,0.0,80,0.00,,,0.00,WSDL version 420,2013-08-11 05:26:00,
2013-08-11 01:31:00,77.9,71.4,30.03,NE,45,0.0,0.0,81,0.00,,,0.00,WSDL version 420,2013-08-11 05:31:00,
2013-08-11 01:37:00,77.9,71.6,30.03,NE,45,0.0,0.0,81,0.00,,,0.00,WSDL version 420,2013-08-11 05:37:00,
2013-08-11 01:42:00,77.9,71.6,30.03,NE,45,0.0,0.0,81,0.00,,,0.00,WSDL version 420,2013-08-11 05:42:00,
2013-08-11 01:47:00,77.7,71.8,30.03,NE,45,0.0,0.0,82,0.00,,,0.00,WSDL version 420,2013-08-11 05:47:00,
2013-08-11 01:52:00,77.7,71.9,30.03,NE,45,0.0,0.0,82,0.00,,,0.00,WSDL version 420,2013-08-11 05:52:00,
2013-08-11 01:57:00,77.7,72.1,30.03,NE,45,0.0,0.0,83,0.00,,,0.00,WSDL version 420,2013-08-11 05:57:00,
2013-08-11 02:02:00,77.7,72.3,30.03,NE,45,0.0,0.0,83,0.00,,,0.00,WSDL version 420,2013-08-11 06:02:00,
2013-08-11 02:07:00,77.7,72.3,30.03,NE,45,0.0,0.0,83,0.00,,,0.00,WSDL version 420,2013-08-11 06:07:00,
2013-08-11 02:17:00,77.5,72.1,30.03,NE,45,0.0,0.0,83,0.00,,,0.00,WSDL version 420,2013-08-11 06:17:00,
2013-08-11 02:22:00,77.5,72.1,30.03,NE,45,0.0,0.0,83,0.00,,,0.00,WSDL version 420,2013-08-11 06:22:00,
2013-08-11 02:29:00,77.4,72.3,30.03,NE,45,0.0,0.0,84,0.00,,,0.00,WSDL version 420,2013-08-11 06:29:00,
2013-08-11 02:34:00,77.4,72.3,30.03,NE,45,0.0,0.0,84,0.00,,,0.00,WSDL version 420,2013-08-11 06:34:00,
2013-08-11 02:39:00,77.4,72.3,30.03,NE,45,0.0,0.0,84,0.00,,,0.00,WSDL version 420,2013-08-11 06:39:00,
2013-08-11 02:49:00,77.4,72.3,30.03,NE,45,0.0,0.0,84,0.00,,,0.00,WSDL version 420,2013-08-11 06:49:00,
2013-08-11 02:54:00,77.4,72.3,30.03,NE,45,0.0,0.0,84,0.00,,,0.00,WSDL version 420,2013-08-11 06:54:00,
2013-08-11 02:59:00,77.2,72.1,30.03,NE,45,0.0,0.0,84,0.00,,,0.00,WSDL version 420,2013-08-11 06:59:00,
2013-08-11 03:06:00,77.2,72.1,30.03,NE,45,0.0,0.0,84,0.00,,,0.00,WSDL version 420,2013-08-11 07:06:00,
2013-08-11 03:13:00,77.2,72.3,30.03,NE,45,0.0,0.0,86,0.00,,,0.00,WSDL version 420,2013-08-11 07:13:00,
2013-08-11 03:18:00,77.2,72.5,30.03,NE,45,0.0,0.0,86,0.00,,,0.00,WSDL version 420,2013-08-11 07:18:00,
2013-08-11 03:27:00,77.4,72.7,30.03,NE,45,0.0,0.0,86,0.00,,,0.00,WSDL version 420,2013-08-11 07:27:00,
2013-08-11 03:34:00,77.4,72.7,30.03,NE,45,0.0,0.0,86,0.00,,,0.00,WSDL version 420,2013-08-11 07:34:00,
2013-08-11 03:39:00,77.4,72.7,30.03,NE,45,0.0,0.0,86,0.00,,,0.00,WSDL version 420,2013-08-11 07:39:00,
2013-08-11 03:44:00,77.4,72.7,30.03,NE,45,0.0,0.0,86,0.00,,,0.00,WSDL version 420,2013-08-11 07:44:00,
2013-08-11 03:49:00,77.3,72.6,30.03,NE,45,0.0,0.0,86,0.00,,,0.00,WSDL version 420,2013-08-11 07:49:00,
2013-08-11 03:54:00,77.2,72.5,30.03,NE,45,0.0,0.0,86,0.00,,,0.00,WSDL version 420,2013-08-11 07:54:00,
2013-08-11 03:59:00,77.2,72.5,30.03,NE,45,0.0,0.0,86,0.00,,,0.00,WSDL version 420,2013-08-11 07:59:00,
2013-08-11 04:04:00,77.1,72.4,30.03,NE,45,0.0,0.0,86,0.00,,,0.00,WSDL version 420,2013-08-11 08:04:00,
2013-08-11 04:09:00,77.0,72.3,30.03,NE,45,0.0,0.0,86,0.00,,,0.00,WSDL version 420,2013-08-11 08:09:00,
2013-08-11 04:14:00,77.0,72.3,30.03,NE,45,0.0,0.0,86,0.00,,,0.00,WSDL version 420,2013-08-11 08:14:00,
2013-08-11 04:19:00,77.0,72.3,30.03,NE,45,0.0,0.0,86,0.00,,,0.00,WSDL version 420,2013-08-11 08:19:00,
2013-08-11 04:25:00,77.0,72.3,30.03,NE,45,0.0,0.0,86,0.00,,,0.00,WSDL version 420,2013-08-11 08:25:00,
2013-08-11 04:30:00,76.9,72.5,30.03,NE,45,0.0,0.0,87,0.00,,,0.00,WSDL version 420,2013-08-11 08:30:00,
2013-08-11 04:35:00,76.8,72.5,30.03,NE,45,0.0,0.0,87,0.00,,,0.00,WSDL version 420,2013-08-11 08:35:00,
2013-08-11 04:40:00,76.8,72.5,30.03,NE,45,0.0,0.0,87,0.00,,,0.00,WSDL version 420,2013-08-11 08:40:00,
2013-08-11 04:47:00,76.8,72.5,30.03,NE,45,0.0,0.0,87,0.00,,,0.00,WSDL version 420,2013-08-11 08:47:00,
2013-08-11 04:52:00,76.8,72.5,30.03,NE,45,0.0,0.0,87,0.00,,,0.00,WSDL version 420,2013-08-11 08:52:00,
2013-08-11 04:57:00,76.8,72.5,30.03,NE,45,0.0,0.0,87,0.00,,,0.00,WSDL version 420,2013-08-11 08:57:00,
2013-08-11 05:02:00,76.6,72.4,30.03,NE,45,0.0,0.0,87,0.00,,,0.00,WSDL version 420,2013-08-11 09:02:00,
2013-08-11 05:09:00,76.6,72.6,30.03,NE,45,0.0,0.0,88,0.00,,,0.00,WSDL version 420,2013-08-11 09:09:00,
2013-08-11 05:14:00,76.6,72.7,30.03,NE,45,0.0,0.0,88,0.00,,,0.00,WSDL version 420,2013-08-11 09:14:00,
2013-08-11 05:19:00,76.6,72.7,30.03,NE,45,0.0,0.0,88,0.00,,,0.00,WSDL version 420,2013-08-11 09:19:00,
2013-08-11 05:24:00,76.6,72.7,30.03,NE,45,0.0,0.0,88,0.00,,,0.00,WSDL version 420,2013-08-11 09:24:00,
2013-08-11 05:29:00,76.5,72.6,30.03,NE,45,0.0,0.0,88,0.00,,,0.00,WSDL version 420,2013-08-11 09:29:00,
2013-08-11 05:34:00,76.5,72.6,30.03,NE,45,0.0,0.0,88,0.00,,,0.00,WSDL version 420,2013-08-11 09:34:00,
2013-08-11 05:39:00,76.5,72.6,30.03,NE,45,0.0,0.0,88,0.00,,,0.00,WSDL version 420,2013-08-11 09:39:00,
2013-08-11 05:44:00,76.4,72.5,30.03,NE,45,0.0,0.0,88,0.00,,,0.00,WSDL version 420,2013-08-11 09:44:00,
2013-08-11 05:49:00,76.5,72.6,30.03,NE,45,0.0,0.0,88,0.00,,,0.00,WSDL version 420,2013-08-11 09:49:00,
2013-08-11 06:01:00,76.5,72.6,30.03,NE,45,0.0,0.0,88,0.00,,,0.00,WSDL version 420,2013-08-11 10:01:00,
2013-08-11 06:06:00,76.3,72.4,30.03,NE,45,0.0,0.0,88,0.00,,,0.00,WSDL version 420,2013-08-11 10:06:00,
2013-08-11 06:11:00,76.3,72.4,30.03,NE,45,0.0,0.0,88,0.00,,,0.00,WSDL version 420,2013-08-11 10:11:00,
2013-08-11 06:16:00,76.4,72.5,30.03,NE,45,0.0,0.0,88,0.00,,,0.00,WSDL version 420,2013-08-11 10:16:00,
2013-08-11 06:21:00,76.5,72.6,30.03,NE,45,0.0,0.0,88,0.00,,,0.00,WSDL version 420,2013-08-11 10:21:00,
2013-08-11 06:28:00,76.6,72.7,30.03,NE,45,0.0,0.0,88,0.00,,,0.00,WSDL version 420,2013-08-11 10:28:00,
2013-08-11 06:40:00,76.6,72.7,30.03,NE,45,0.0,0.0,88,0.00,,,0.00,WSDL version 420,2013-08-11 10:40:00,
2013-08-11 06:48:00,76.8,72.9,30.03,NE,45,0.0,0.0,88,0.00,,,0.00,WSDL version 420,2013-08-11 10:48:00,
2013-08-11 06:57:00,77.0,73.1,30.03,NE,45,0.0,0.0,88,0.00,,,0.00,WSDL version 420,2013-08-11 10:57:00,
2013-08-11 07:02:00,77.2,73.3,30.03,NE,45,0.0,0.0,88,0.00,,,0.00,WSDL version 420,2013-08-11 11:02:00,
2013-08-11 07:07:00,77.3,73.4,30.03,NE,45,0.0,0.0,88,0.00,,,0.00,WSDL version 420,2013-08-11 11:07:00,
2013-08-11 07:17:00,77.6,73.7,30.00,NE,45,0.0,0.0,88,0.00,,,0.00,WSDL version 420,2013-08-11 11:17:00,
2013-08-11 07:24:00,77.8,73.5,30.00,NE,45,0.0,0.0,87,0.00,,,0.00,WSDL version 420,2013-08-11 11:24:00,
2013-08-11 07:34:00,78.3,74.0,30.00,NE,45,0.0,0.0,87,0.00,,,0.00,WSDL version 420,2013-08-11 11:34:00,
2013-08-11 07:39:00,78.7,74.4,30.00,ENE,68,0.0,0.0,87,0.00,,,0.00,WSDL version 420,2013-08-11 11:39:00,
2013-08-11 07:46:00,79.4,75.1,30.03,East,90,0.0,0.0,87,0.00,,,0.00,WSDL version 420,2013-08-11 11:46:00,
2013-08-11 07:51:00,79.7,75.0,30.03,East,90,0.0,0.0,86,0.00,,,0.00,WSDL version 420,2013-08-11 11:51:00,
2013-08-11 07:56:00,80.3,75.4,30.03,NE,41,0.0,0.0,84,0.00,,,0.00,WSDL version 420,2013-08-11 11:56:00,
2013-08-11 08:01:00,80.8,75.7,30.00,ENE,75,0.1,1.6,84,0.00,,,0.00,WSDL version 420,2013-08-11 12:01:00,
2013-08-11 08:06:00,81.3,75.5,30.00,ENE,71,1.2,2.5,82,0.00,,,0.00,WSDL version 420,2013-08-11 12:06:00,
2013-08-11 08:13:00,81.9,75.5,30.03,ENE,64,2.5,3.6,80,0.00,,,0.00,WSDL version 420,2013-08-11 12:13:00,
2013-08-11 08:18:00,82.3,75.2,30.03,ENE,71,0.4,3.8,78,0.00,,,0.00,WSDL version 420,2013-08-11 12:18:00,
2013-08-11 08:23:00,82.7,75.1,30.03,ENE,68,1.6,3.8,78,0.00,,,0.00,WSDL version 420,2013-08-11 12:23:00,
2013-08-11 08:30:00,83.4,75.0,30.03,SE,135,2.6,3.8,76,0.00,,,0.00,WSDL version 420,2013-08-11 12:30:00,
2013-08-11 08:40:00,84.1,74.3,30.03,NNW,334,2.3,3.8,72,0.00,,,0.00,WSDL version 420,2013-08-11 12:40:00,
2013-08-11 08:45:00,84.5,73.7,30.03,East,99,3.0,6.3,69,0.00,,,0.00,WSDL version 420,2013-08-11 12:45:00,
2013-08-11 08:50:00,85.5,74.3,30.03,SW,221,3.5,6.3,69,0.00,,,0.00,WSDL version 420,2013-08-11 12:50:00,
2013-08-11 08:55:00,86.5,74.2,30.03,NE,51,1.3,5.6,67,0.00,,,0.00,WSDL version 420,2013-08-11 12:55:00,
2013-08-11 09:01:00,88.2,74.9,30.03,NE,56,1.2,3.4,65,0.00,,,0.00,WSDL version 420,2013-08-11 13:01:00,
2013-08-11 09:06:00,87.9,73.3,30.03,ENE,76,2.1,4.0,62,0.00,,,0.00,WSDL version 420,2013-08-11 13:06:00,
2013-08-11 09:11:00,87.4,73.1,30.03,East,101,2.1,5.8,61,0.00,,,0.00,WSDL version 420,2013-08-11 13:11:00,
2013-08-11 09:16:00,89.0,74.1,30.06,NE,56,2.4,5.8,60,0.00,,,0.00,WSDL version 420,2013-08-11 13:16:00,
2013-08-11 09:21:00,90.4,73.6,30.06,SE,143,2.8,6.0,57,0.00,,,0.00,WSDL version 420,2013-08-11 13:21:00,
2013-08-11 09:26:00,90.5,72.4,30.06,ENE,59,4.0,6.0,54,0.00,,,0.00,WSDL version 420,2013-08-11 13:26:00,
2013-08-11 09:33:00,92.2,72.7,30.03,East,87,4.0,6.5,53,0.00,,,0.00,WSDL version 420,2013-08-11 13:33:00,
2013-08-11 09:38:00,92.5,72.3,30.03,ENE,62,3.8,6.5,52,0.00,,,0.00,WSDL version 420,2013-08-11 13:38:00,
2013-08-11 09:43:00,93.5,72.3,30.03,ESE,118,3.2,5.6,51,0.00,,,0.00,WSDL version 420,2013-08-11 13:43:00,
2013-08-11 09:48:00,93.1,71.3,30.03,NE,56,4.0,7.6,49,0.00,,,0.00,WSDL version 420,2013-08-11 13:48:00,
2013-08-11 09:55:00,92.8,71.3,30.03,NE,53,2.0,5.8,49,0.00,,,0.00,WSDL version 420,2013-08-11 13:55:00,
2013-08-11 10:00:00,93.6,71.3,30.03,NNE,18,3.6,6.7,48,0.00,,,0.00,WSDL version 420,2013-08-11 14:00:00,
2013-08-11 10:05:00,93.8,71.1,30.03,SSE,158,1.8,6.7,48,0.00,,,0.00,WSDL version 420,2013-08-11 14:05:00,
2013-08-11 10:10:00,94.6,72.1,30.03,ENE,70,1.5,5.4,47,0.00,,,0.00,WSDL version 420,2013-08-11 14:10:00,
2013-08-11 10:15:00,94.2,69.8,30.06,SE,146,3.2,8.5,46,0.00,,,0.00,WSDL version 420,2013-08-11 14:15:00,
2013-08-11 10:20:00,93.7,68.7,30.06,East,90,3.5,8.5,45,0.00,,,0.00,WSDL version 420,2013-08-11 14:20:00,
2013-08-11 10:25:00,94.2,69.9,30.06,South,177,2.5,7.4,45,0.00,,,0.00,WSDL version 420,2013-08-11 14:25:00,
2013-08-11 10:30:00,94.2,70.1,30.03,NE,45,3.9,5.4,44,0.00,,,0.00,WSDL version 420,2013-08-11 14:30:00,
2013-08-11 10:35:00,93.2,67.7,30.03,NE,45,4.0,6.3,44,0.00,,,0.00,WSDL version 420,2013-08-11 14:35:00,
2013-08-11 10:42:00,92.6,67.2,30.03,ENE,70,4.6,6.3,44,0.00,,,0.00,WSDL version 420,2013-08-11 14:42:00,
2013-08-11 10:47:00,92.4,68.0,30.03,East,98,3.7,6.3,45,0.00,,,0.00,WSDL version 420,2013-08-11 14:47:00,
2013-08-11 10:52:00,92.5,69.0,30.03,South,176,2.5,6.3,47,0.00,,,0.00,WSDL version 420,2013-08-11 14:52:00,
2013-08-11 11:02:00,92.1,70.2,30.03,ESE,116,2.1,6.9,49,0.00,,,0.00,WSDL version 420,2013-08-11 15:02:00,
2013-08-11 11:07:00,92.0,69.8,30.03,East,90,1.9,4.0,49,0.00,,,0.00,WSDL version 420,2013-08-11 15:07:00,
2013-08-11 11:12:00,92.0,70.6,30.03,ESE,118,2.1,4.0,50,0.00,,,0.00,WSDL version 420,2013-08-11 15:12:00,
2013-08-11 11:19:00,92.4,71.1,30.03,SE,132,1.9,4.7,50,0.00,,,0.00,WSDL version 420,2013-08-11 15:19:00,
2013-08-11 11:24:00,92.3,70.1,30.03,ENE,64,2.8,5.6,47,0.00,,,0.00,WSDL version 420,2013-08-11 15:24:00,
2013-08-11 11:29:00,92.7,70.6,30.03,NW,304,2.6,5.6,49,0.00,,,0.00,WSDL version 420,2013-08-11 15:29:00,
2013-08-11 11:34:00,93.1,69.4,30.03,NE,51,2.7,5.8,45,0.00,,,0.00,WSDL version 420,2013-08-11 15:34:00,
2013-08-11 11:41:00,93.2,69.0,30.03,SSW,199,4.1,5.8,47,0.00,,,0.00,WSDL version 420,2013-08-11 15:41:00,
2013-08-11 11:46:00,93.5,69.3,30.03,ENE,64,2.8,4.9,46,0.00,,,0.00,WSDL version 420,2013-08-11 15:46:00,
2013-08-11 11:53:00,93.4,68.4,30.03,East,93,3.3,7.4,44,0.00,,,0.00,WSDL version 420,2013-08-11 15:53:00,
2013-08-11 11:58:00,93.5,68.3,30.03,East,84,3.9,7.4,44,0.00,,,0.00,WSDL version 420,2013-08-11 15:58:00,
2013-08-11 12:04:00,93.4,67.1,30.03,ENE,62,3.7,7.4,43,0.00,,,0.00,WSDL version 420,2013-08-11 16:04:00,
2013-08-11 12:11:00,94.0,68.9,30.03,East,86,3.0,7.4,43,0.00,,,0.00,WSDL version 420,2013-08-11 16:11:00,
2013-08-11 12:20:00,93.7,67.6,30.03,SE,138,2.7,7.2,43,0.00,,,0.00,WSDL version 420,2013-08-11 16:20:00,
2013-08-11 12:25:00,94.2,69.2,30.03,SSE,167,2.8,7.2,44,0.00,,,0.00,WSDL version 420,2013-08-11 16:25:00,
2013-08-11 12:30:00,94.2,68.3,30.03,NE,55,3.4,6.0,42,0.00,,,0.00,WSDL version 420,2013-08-11 16:30:00,
2013-08-11 12:35:00,93.9,67.5,30.03,East,87,3.8,7.4,41,0.00,,,0.00,WSDL version 420,2013-08-11 16:35:00,
2013-08-11 12:45:00,94.2,67.4,30.03,ESE,116,3.1,6.5,43,0.00,,,0.00,WSDL version 420,2013-08-11 16:45:00,
2013-08-11 12:50:00,93.9,67.4,30.03,NE,48,3.2,5.8,42,0.00,,,0.00,WSDL version 420,2013-08-11 16:50:00,
2013-08-11 12:55:00,93.9,67.3,30.03,SE,128,2.6,5.8,43,0.00,,,0.00,WSDL version 420,2013-08-11 16:55:00,
2013-08-11 13:00:00,94.5,69.2,30.03,East,93,1.3,4.3,44,0.00,,,0.00,WSDL version 420,2013-08-11 17:00:00,
2013-08-11 13:05:00,93.8,67.9,30.03,SSE,161,3.1,5.4,44,0.00,,,0.00,WSDL version 420,2013-08-11 17:05:00,
2013-08-11 13:10:00,93.9,68.2,30.03,East,90,2.6,5.4,42,0.00,,,0.00,WSDL version 420,2013-08-11 17:10:00,
2013-08-11 13:17:00,93.0,67.1,30.03,East,84,3.1,5.6,42,0.00,,,0.00,WSDL version 420,2013-08-11 17:17:00,
2013-08-11 13:22:00,93.1,66.9,30.03,NE,48,2.9,5.6,42,0.00,,,0.00,WSDL version 420,2013-08-11 17:22:00,
2013-08-11 13:29:00,94.2,68.0,30.03,ENE,73,3.0,6.0,42,0.00,,,0.00,WSDL version 420,2013-08-11 17:29:00,
2013-08-11 13:34:00,94.0,66.5,30.03,NE,55,3.3,6.0,42,0.00,,,0.00,WSDL version 420,2013-08-11 17:34:00,
2013-08-11 13:39:00,93.7,66.0,30.03,SE,125,2.3,6.0,42,0.00,,,0.00,WSDL version 420,2013-08-11 17:39:00,
2013-08-11 13:44:00,93.9,66.1,30.03,East,93,2.7,6.0,41,0.00,,,0.00,WSDL version 420,2013-08-11 17:44:00,
2013-08-11 13:49:00,94.0,66.2,30.03,ENE,60,2.9,6.3,40,0.00,,,0.00,WSDL version 420,2013-08-11 17:49:00,
2013-08-11 13:56:00,94.8,67.6,30.03,SSW,212,2.8,6.3,42,0.00,,,0.00,WSDL version 420,2013-08-11 17:56:00,
2013-08-11 14:01:00,94.6,66.7,30.00,East,80,3.7,5.8,39,0.00,,,0.00,WSDL version 420,2013-08-11 18:01:00,
2013-08-11 14:06:00,94.8,67.6,30.00,ENE,61,2.9,6.0,41,0.00,,,0.00,WSDL version 420,2013-08-11 18:06:00,
2013-08-11 14:11:00,94.9,65.9,30.00,ENE,71,3.9,6.3,38,0.00,,,0.00,WSDL version 420,2013-08-11 18:11:00,
2013-08-11 14:21:00,94.7,66.1,30.03,ENE,70,4.3,6.5,40,0.00,,,0.00,WSDL version 420,2013-08-11 18:21:00,
2013-08-11 14:26:00,95.2,66.7,30.03,ENE,77,3.1,6.0,40,0.00,,,0.00,WSDL version 420,2013-08-11 18:26:00,
2013-08-11 14:36:00,94.8,66.2,30.03,ENE,63,3.9,6.3,40,0.00,,,0.00,WSDL version 420,2013-08-11 18:36:00,
2013-08-11 14:41:00,94.7,66.3,30.03,ENE,61,2.3,7.4,40,0.00,,,0.00,WSDL version 420,2013-08-11 18:41:00,
2013-08-11 14:47:00,95.2,67.1,30.03,East,79,3.4,7.4,40,0.00,,,0.00,WSDL version 420,2013-08-11 18:47:00,
2013-08-11 14:52:00,95.9,68.4,30.03,SE,128,2.0,5.4,41,0.00,,,0.00,WSDL version 420,2013-08-11 18:52:00,
2013-08-11 14:57:00,95.8,67.6,30.03,ESE,104,2.8,6.3,40,0.00,,,0.00,WSDL version 420,2013-08-11 18:57:00,
2013-08-11 15:02:00,95.5,66.8,30.03,East,87,2.9,6.3,39,0.00,,,0.00,WSDL version 420,2013-08-11 19:02:00,
2013-08-11 15:08:00,94.8,67.3,30.03,SW,231,3.0,5.4,41,0.00,,,0.00,WSDL version 420,2013-08-11 19:08:00,
2013-08-11 15:17:00,94.1,67.0,30.00,NNW,344,3.4,6.0,42,0.00,,,0.00,WSDL version 420,2013-08-11 19:17:00,
2013-08-11 15:22:00,94.8,67.8,30.00,ENE,74,2.7,6.0,42,0.00,,,0.00,WSDL version 420,2013-08-11 19:22:00,
2013-08-11 15:27:00,95.4,67.6,30.00,East,84,3.5,7.4,40,0.00,,,0.00,WSDL version 420,2013-08-11 19:27:00,
2013-08-11 15:32:00,95.2,66.9,30.00,ESE,116,1.9,7.4,40,0.00,,,0.00,WSDL version 420,2013-08-11 19:32:00,
2013-08-11 15:37:00,95.4,67.4,30.00,ENE,77,2.1,5.4,41,0.00,,,0.00,WSDL version 420,2013-08-11 19:37:00,
2013-08-11 15:42:00,95.5,67.0,30.00,ENE,64,3.4,7.2,39,0.00,,,0.00,WSDL version 420,2013-08-11 19:42:00,
2013-08-11 15:47:00,95.4,66.3,30.00,ENE,70,2.9,7.2,38,0.00,,,0.00,WSDL version 420,2013-08-11 19:47:00,
2013-08-11 15:52:00,94.9,65.6,30.00,East,84,3.9,6.0,39,0.00,,,0.00,WSDL version 420,2013-08-11 19:52:00,
2013-08-11 15:57:00,95.3,66.5,30.00,ENE,60,3.2,7.6,39,0.00,,,0.00,WSDL version 420,2013-08-11 19:57:00,
2013-08-11 16:02:00,95.1,66.2,30.00,NE,53,3.1,7.6,39,0.00,,,0.00,WSDL version 420,2013-08-11 20:02:00,
2013-08-11 16:12:00,94.5,67.0,29.97,East,99,2.3,7.6,40,0.00,,,0.00,WSDL version 420,2013-08-11 20:12:00,
2013-08-11 16:17:00,94.2,66.5,29.97,NNE,31,2.5,6.3,41,0.00,,,0.00,WSDL version 420,2013-08-11 20:17:00,
2013-08-11 16:22:00,93.8,66.2,29.97,ENE,60,3.2,7.2,41,0.00,,,0.00,WSDL version 420,2013-08-11 20:22:00,
2013-08-11 16:31:00,94.0,66.9,29.97,East,100,3.5,5.8,42,0.00,,,0.00,WSDL version 420,2013-08-11 20:31:00,
2013-08-11 16:38:00,93.6,66.0,29.97,East,84,4.9,7.2,40,0.00,,,0.00,WSDL version 420,2013-08-11 20:38:00,
2013-08-11 16:48:00,92.8,66.2,29.97,NNE,28,4.5,6.5,41,0.00,,,0.00,WSDL version 420,2013-08-11 20:48:00,
2013-08-11 16:58:00,92.5,66.4,29.97,East,96,4.3,6.3,43,0.00,,,0.00,WSDL version 420,2013-08-11 20:58:00,
2013-08-11 17:03:00,92.5,66.1,29.97,ENE,60,4.2,7.4,41,0.00,,,0.00,WSDL version 420,2013-08-11 21:03:00,
2013-08-11 17:08:00,92.4,66.2,29.97,NE,53,4.0,7.4,43,0.00,,,0.00,WSDL version 420,2013-08-11 21:08:00,
2013-08-11 17:15:00,92.6,66.1,29.97,East,98,3.5,5.6,43,0.00,,,0.00,WSDL version 420,2013-08-11 21:15:00,
2013-08-11 17:20:00,92.3,65.7,29.97,East,84,2.4,5.4,42,0.00,,,0.00,WSDL version 420,2013-08-11 21:20:00,
2013-08-11 17:27:00,92.1,66.2,29.97,NE,56,2.9,5.6,43,0.00,,,0.00,WSDL version 420,2013-08-11 21:27:00,
2013-08-11 17:32:00,91.7,65.9,29.97,ENE,68,3.4,6.3,43,0.00,,,0.00,WSDL version 420,2013-08-11 21:32:00,
2013-08-11 17:37:00,91.7,65.9,29.97,NE,48,4.4,7.2,42,0.00,,,0.00,WSDL version 420,2013-08-11 21:37:00,
2013-08-11 17:42:00,91.0,64.9,29.97,East,86,2.8,7.2,43,0.00,,,0.00,WSDL version 420,2013-08-11 21:42:00,
2013-08-11 17:47:00,90.8,66.1,29.97,NE,38,3.7,6.5,45,0.00,,,0.00,WSDL version 420,2013-08-11 21:47:00,
2013-08-11 17:52:00,90.7,66.8,29.97,NE,56,4.6,7.2,45,0.00,,,0.00,WSDL version 420,2013-08-11 21:52:00,
2013-08-11 18:00:00,90.2,66.8,29.97,ESE,122,2.7,7.6,47,0.00,,,0.00,WSDL version 420,2013-08-11 22:00:00,
2013-08-11 18:05:00,89.5,66.5,29.97,NE,51,3.5,7.6,47,0.00,,,0.00,WSDL version 420,2013-08-11 22:05:00,
2013-08-11 18:14:00,89.1,67.1,29.97,ESE,103,2.7,6.0,49,0.00,,,0.00,WSDL version 420,2013-08-11 22:14:00,
2013-08-11 18:19:00,89.1,67.4,29.97,ENE,68,2.3,5.6,49,0.00,,,0.00,WSDL version 420,2013-08-11 22:19:00,
2013-08-11 18:24:00,89.0,67.7,29.97,ENE,58,3.4,5.6,49,0.00,,,0.00,WSDL version 420,2013-08-11 22:24:00,
2013-08-11 18:31:00,88.4,67.5,29.94,NNE,28,3.4,7.6,50,0.00,,,0.00,WSDL version 420,2013-08-11 22:31:00,
2013-08-11 18:36:00,88.1,67.7,29.94,ENE,64,4.5,7.6,51,0.00,,,0.00,WSDL version 420,2013-08-11 22:36:00,
2013-08-11 18:43:00,88.0,67.6,29.97,ENE,62,2.6,6.0,51,0.00,,,0.00,WSDL version 420,2013-08-11 22:43:00,
2013-08-11 18:48:00,87.7,67.9,29.97,ENE,64,2.7,5.6,52,0.00,,,0.00,WSDL version 420,2013-08-11 22:48:00,
2013-08-11 18:53:00,87.3,68.1,29.97,East,86,2.7,5.8,53,0.00,,,0.00,WSDL version 420,2013-08-11 22:53:00,
2013-08-11 18:58:00,87.1,67.9,29.97,SSE,149,3.6,5.8,53,0.00,,,0.00,WSDL version 420,2013-08-11 22:58:00,
2013-08-11 19:03:00,86.9,67.9,29.97,NE,53,3.2,6.5,54,0.00,,,0.00,WSDL version 420,2013-08-11 23:03:00,
2013-08-11 19:12:00,86.6,68.3,29.97,ENE,64,3.1,5.6,55,0.00,,,0.00,WSDL version 420,2013-08-11 23:12:00,
2013-08-11 19:17:00,86.3,68.8,29.97,NE,48,1.9,6.0,56,0.00,,,0.00,WSDL version 420,2013-08-11 23:17:00,
2013-08-11 19:22:00,86.1,68.6,29.97,ENE,58,3.1,6.0,56,0.00,,,0.00,WSDL version 420,2013-08-11 23:22:00,
2013-08-11 19:27:00,85.8,68.4,29.97,ENE,68,1.1,4.7,57,0.00,,,0.00,WSDL version 420,2013-08-11 23:27:00,
2013-08-11 19:32:00,85.7,68.7,29.97,East,79,2.7,3.8,57,0.00,,,0.00,WSDL version 420,2013-08-11 23:32:00,
2013-08-11 19:43:00,85.2,68.8,29.97,ENE,60,2.9,6.0,58,0.00,,,0.00,WSDL version 420,2013-08-11 23:43:00,
2013-08-11 19:48:00,84.9,68.5,29.97,ENE,68,2.1,6.0,58,0.00,,,0.00,WSDL version 420,2013-08-11 23:48:00,
2013-08-11 19:53:00,84.7,68.9,29.97,ENE,59,3.5,4.3,60,0.00,,,0.00,WSDL version 420,2013-08-11 23:53:00,
2013-08-11 19:58:00,84.4,69.2,29.97,ENE,68,2.1,4.3,61,0.00,,,0.00,WSDL version 420,2013-08-11 23:58:00,
2013-08-11 20:03:00,84.3,69.5,29.97,ENE,71,3.6,4.0,62,0.00,,,0.00,WSDL version 420,2013-08-12 00:03:00,
2013-08-11 20:08:00,84.1,69.6,29.97,ENE,59,2.1,4.0,62,0.00,,,0.00,WSDL version 420,2013-08-12 00:08:00,
2013-08-11 20:19:00,83.7,69.7,29.97,ENE,77,1.0,4.0,63,0.00,,,0.00,WSDL version 420,2013-08-12 00:19:00,
2013-08-11 20:24:00,83.6,69.9,29.97,ENE,60,1.8,3.4,64,0.00,,,0.00,WSDL version 420,2013-08-12 00:24:00,
2013-08-11 20:29:00,83.4,69.9,30.00,North,360,0.0,4.7,64,0.00,,,0.00,WSDL version 420,2013-08-12 00:29:00,
2013-08-11 20:34:00,83.2,69.7,30.00,ENE,64,1.0,4.7,64,0.00,,,0.00,WSDL version 420,2013-08-12 00:34:00,
2013-08-11 20:46:00,82.8,69.8,30.00,NNE,23,0.0,0.0,65,0.00,,,0.00,WSDL version 420,2013-08-12 00:46:00,
2013-08-11 20:51:00,82.6,69.7,30.00,NE,56,0.7,1.6,65,0.00,,,0.00,WSDL version 420,2013-08-12 00:51:00,
2013-08-11 20:56:00,82.4,69.9,30.00,NNE,32,1.0,3.1,66,0.00,,,0.00,WSDL version 420,2013-08-12 00:56:00,
2013-08-11 21:01:00,82.3,70.0,30.00,ENE,68,0.0,3.1,67,0.00,,,0.00,WSDL version 420,2013-08-12 01:01:00,
2013-08-11 21:06:00,82.2,70.2,30.00,NNE,30,0.0,1.1,67,0.00,,,0.00,WSDL version 420,2013-08-12 01:06:00,
2013-08-11 21:11:00,82.1,70.0,30.00,NE,39,0.0,1.6,67,0.00,,,0.00,WSDL version 420,2013-08-12 01:11:00,
2013-08-11 21:16:00,82.0,70.1,30.00,NE,56,0.0,1.6,68,0.00,,,0.00,WSDL version 420,2013-08-12 01:16:00,
2013-08-11 21:21:00,81.9,70.3,30.00,NNE,23,0.0,1.6,68,0.00,,,0.00,WSDL version 420,2013-08-12 01:21:00,
2013-08-11 21:26:00,81.7,70.2,30.00,NNE,25,0.0,1.6,68,0.00,,,0.00,WSDL version 420,2013-08-12 01:26:00,
2013-08-11 21:31:00,81.7,70.1,30.00,NE,45,0.5,1.6,68,0.00,,,0.00,WSDL version 420,2013-08-12 01:31:00,
2013-08-11 21:36:00,81.7,70.1,30.00,North,349,0.0,1.6,68,0.00,,,0.00,WSDL version 420,2013-08-12 01:36:00,
2013-08-11 21:43:00,81.5,70.2,30.03,NE,45,0.0,0.0,69,0.00,,,0.00,WSDL version 420,2013-08-12 01:43:00,
2013-08-11 21:48:00,81.5,70.4,30.03,NE,45,0.0,0.0,69,0.00,,,0.00,WSDL version 420,2013-08-12 01:48:00,
2013-08-11 21:55:00,81.5,70.4,30.03,NE,45,0.0,0.0,69,0.00,,,0.00,WSDL version 420,2013-08-12 01:55:00,
2013-08-11 22:00:00,81.5,70.4,30.00,NE,45,0.0,0.0,69,0.00,,,0.00,WSDL version 420,2013-08-12 02:00:00,
2013-08-11 22:05:00,81.5,70.4,30.00,NE,45,0.0,0.0,69,0.00,,,0.00,WSDL version 420,2013-08-12 02:05:00,
2013-08-11 22:10:00,81.5,70.3,30.00,NE,45,0.0,0.0,69,0.00,,,0.00,WSDL version 420,2013-08-12 02:10:00,
2013-08-11 22:15:00,81.3,70.1,30.03,NE,45,0.0,0.0,69,0.00,,,0.00,WSDL version 420,2013-08-12 02:15:00,
2013-08-11 22:20:00,81.1,70.0,30.03,NE,45,0.0,0.0,69,0.00,,,0.00,WSDL version 420,2013-08-12 02:20:00,
2013-08-11 22:25:00,81.1,70.2,30.03,NE,45,0.0,0.0,70,0.00,,,0.00,WSDL version 420,2013-08-12 02:25:00,
2013-08-11 22:30:00,81.0,70.3,30.03,NE,45,0.0,0.0,70,0.00,,,0.00,WSDL version 420,2013-08-12 02:30:00,
2013-08-11 22:36:00,80.8,70.5,30.03,NE,45,0.0,0.0,71,0.00,,,0.00,WSDL version 420,2013-08-12 02:36:00,
2013-08-11 22:41:00,80.7,70.4,30.03,NE,45,0.0,0.0,71,0.00,,,0.00,WSDL version 420,2013-08-12 02:41:00,
2013-08-11 22:46:00,80.5,70.5,30.03,NE,45,0.0,0.0,72,0.00,,,0.00,WSDL version 420,2013-08-12 02:46:00,
2013-08-11 22:51:00,80.3,70.7,30.03,NE,45,0.0,0.0,73,0.00,,,0.00,WSDL version 420,2013-08-12 02:51:00,
2013-08-11 22:56:00,80.2,70.7,30.03,NE,45,0.0,0.0,73,0.00,,,0.00,WSDL version 420,2013-08-12 02:56:00,
2013-08-11 23:01:00,80.1,70.9,30.03,NE,45,0.0,0.0,74,0.00,,,0.00,WSDL version 420,2013-08-12 03:01:00,
2013-08-11 23:10:00,79.8,71.1,30.03,NE,45,0.0,0.0,75,0.00,,,0.00,WSDL version 420,2013-08-12 03:10:00,
2013-08-11 23:17:00,79.7,71.0,30.03,NE,45,0.0,0.0,75,0.00,,,0.00,WSDL version 420,2013-08-12 03:17:00,
2013-08-11 23:22:00,79.5,70.9,30.03,NE,45,0.0,0.0,75,0.00,,,0.00,WSDL version 420,2013-08-12 03:22:00,
2013-08-11 23:27:00,79.4,70.8,30.03,NE,45,0.0,0.0,75,0.00,,,0.00,WSDL version 420,2013-08-12 03:27:00,
2013-08-11 23:32:00,79.3,70.7,30.03,NE,45,0.0,0.0,75,0.00,,,0.00,WSDL version 420,2013-08-12 03:32:00,
2013-08-11 23:37:00,79.2,70.9,30.03,NE,45,0.0,0.0,76,0.00,,,0.00,WSDL version 420,2013-08-12 03:37:00,
2013-08-11 23:44:00,79.0,70.8,30.03,NE,45,0.0,0.0,76,0.00,,,0.00,WSDL version 420,2013-08-12 03:44:00,
2013-08-11 23:49:00,78.8,70.7,30.03,NE,45,0.0,0.0,77,0.00,,,0.00,WSDL version 420,2013-08-12 03:49:00,
2013-08-11 23:54:00,78.8,71.0,30.03,NE,45,0.0,0.0,77,0.00,,,0.00,WSDL version 420,2013-08-12 03:54:00,
2013-08-11 23:59:00,78.8,70.9,30.03,NE,45,0.0,0.0,77,0.00,,,0.00,WSDL version 420,2013-08-12 03:59:00,